[[{"header":{"parameterUnit":"m.s-1","parameterCategory":1,"la1":30.2991,"la2":30.254,"lo1":-89.0895,"lo2":-89.0444,"dy":0.0017,"dx":0.0017,"nx":28,"ny":28,"refTime":"2024-02-29T09:00:00:Z","depth":0,"parameterNumber":2,"parameterNumberName":"U-component_of_WINDS"},"data":[0,0,0,0,0,0,0,0,0,0,0,0,0,0,0,0,0,0,0,0,0,0,0,0,0,0,0,0,0,0,0,0,0,0,0,0,0,0,0,0,0,0,0,0,0,0,0,0,0,0,0,0,0,0,0,0,0,0,-3.8469,-3.847,0,-3.8509,-3.8509,-3.851,-3.8441,-3.8438,-3.8436,-3.8434,-3.8474,-3.8477,-3.848,0,0,0,0,0,0,0,0,0,0,0,0,0,-3.8332,-3.8335,-3.8469,-3.847,-3.847,-3.8509,-3.8509,-3.851,-3.8441,-3.8438,-3.8435,-3.8433,-3.8473,-3.8477,-3.848,0,0,0,0,0,0,0,0,0,0,0,0,0,-3.8384,-3.8336,-3.8469,-3.844,-3.8438,-3.8509,-3.851,-3.851,-3.8442,-3.8438,-3.8435,-3.8431,-3.8471,-3.8476,-3.8481,-3.8581,0,0,-3.8496,-3.8498,0,0,0,0,0,0,0,0,-3.8381,-3.8389,-3.8444,-3.8443,-3.844,-3.8466,-3.8476,-3.8534,-3.8442,-3.844,-3.8434,-3.843,-3.8474,-3.8478,-3.8494,-3.8583,-3.8585,-3.8496,-3.8499,-3.8501,-3.8503,0,0,0,0,0,0,0,-3.8378,-3.8387,-3.8485,-3.8445,-3.8443,-3.8425,-3.8429,-3.8487,-3.8476,-3.844,-3.8435,-3.8441,-3.8472,-3.8489,-3.8494,-3.8585,-3.8496,-3.85,-3.8503,-3.8505,-3.8759,-3.8762,0,0,0,0,0,0,-3.8378,-3.8384,-3.8484,-3.8486,-3.8401,-3.843,-3.8434,-3.8461,-3.8476,-3.8474,-3.8444,-3.8438,-3.8483,-3.8488,-3.8495,-3.8614,-3.8501,-3.8506,-3.8509,-3.8755,-3.876,-3.8764,0,0,0,0,0,0,-3.8375,-3.8387,-3.8482,-3.8434,-3.8445,-3.8437,-3.8468,-3.8464,-3.8481,-3.8478,-3.8476,-3.8463,-3.848,-3.8488,-3.856,-3.8614,-3.8508,-3.8512,-3.8751,-3.8756,-3.8762,-3.8852,0,0,0,0,0,0,-3.8371,-3.8387,-3.8425,-3.8435,-3.8448,-3.8547,-3.8471,-3.8467,-3.8489,-3.8482,-3.8496,-3.8495,-3.8478,-3.8554,-3.8565,-3.8619,-3.8516,-3.8746,-3.8753,-3.876,-3.8844,-3.886,-3.8874,0,0,0,0,0,-3.8367,-3.8449,-3.8427,-3.844,-3.8495,-3.8551,-3.8557,-3.8537,-3.8494,-3.8533,-3.8531,-3.8494,-3.8606,-3.8561,-3.8574,-3.863,-3.8742,-3.8751,-3.8759,-3.8837,-3.8857,-3.8873,0,0,0,0,0,0,-3.8445,-3.8449,-3.8426,-3.8514,-3.8532,-3.8539,-3.8587,-3.8558,-3.8589,-3.858,-3.8552,-3.8556,-3.8634,-3.8639,-3.8589,-3.8728,-3.8667,-3.8679,-3.8722,-3.874,-3.8755,-3.8753,-3.852,0,0,0,0,0,-3.8472,-3.8517,-3.8518,-3.8596,-3.8606,-3.8595,-3.8618,-3.8601,-3.8618,-3.8626,-3.8629,-3.8648,-3.8687,-3.8714,-3.875,-3.8844,-3.8846,-3.8889,-3.8903,-3.8915,-3.8926,-3.8976,-3.8995,-3.8792,-3.8792,-3.8792,0,0,-3.8529,-3.8537,-3.8567,-3.8612,-3.8624,-3.8671,-3.8602,-3.8654,-3.8689,-3.8634,-3.8702,-3.8706,-3.8724,-3.8808,-3.8845,-3.8815,-3.8982,-3.8926,-3.8936,-3.894,-3.8987,-3.9006,-3.9024,-3.8798,-3.8797,-3.8796,0,0,-3.8658,-3.8668,-3.8734,-3.8748,-3.8767,-3.8759,-3.8775,-3.8786,-3.8786,-3.8854,-3.8814,-3.8854,-3.8922,-3.8937,-3.8954,-3.9087,-3.9055,-3.91,-3.9177,-3.9226,-3.9243,-3.9257,-3.9305,-3.9322,-3.911,-3.911,-3.911,0,-3.8727,-3.8796,-3.8771,-3.8827,-3.8847,-3.88,-3.8866,-3.888,-3.891,-3.8926,-3.8891,-3.8975,-3.8985,-3.9071,-3.9104,-3.9119,-3.9136,-3.9099,-3.9242,-3.9256,-3.9269,-3.9315,-3.9333,-3.9116,-3.9115,-3.9114,-3.9114,0,-3.888,-3.8928,-3.8979,-3.901,-3.9036,-3.9096,-3.9081,-3.911,-3.909,-3.9085,-3.9155,-3.9164,-3.9201,-3.922,-3.9201,-3.9304,-3.9285,-3.9247,-3.9185,-3.9294,-3.9337,-3.9354,-3.9123,-3.9121,-3.912,-3.9118,0,0,-3.906,-3.9076,-3.9095,-3.9108,-3.9126,-3.9163,-3.9221,-3.9257,-3.9283,-3.9305,-3.9353,-3.9412,-3.9376,-3.9395,-3.9377,-3.942,-3.9526,-3.9376,-3.9376,-3.9405,-3.9641,-3.967,-3.9691,-3.9504,-3.9507,-3.951,-3.9639,0,-3.9188,-3.9289,-3.9268,-3.9367,-3.9411,-3.9366,-3.9416,-3.9433,-3.943,-3.9467,-3.9462,-3.9505,-3.9455,-3.9466,-3.9507,-3.9505,-3.9573,-3.9495,-3.9549,-3.9551,-3.9547,-3.9713,-3.9744,-3.9866,-3.9656,-3.9658,-3.966,0,-3.9351,-3.938,-3.9484,-3.9494,-3.9512,-3.9558,-3.9589,-3.9625,-3.9642,-3.9637,-3.9658,-3.9631,-3.9688,-3.9625,-3.9704,-3.9651,-3.9671,-3.9674,-3.9678,-3.9683,-3.9613,-3.9723,-3.9905,-3.9923,-3.9686,-3.9684,-3.9682,0,-3.9474,-3.9538,-3.9608,-3.9621,-3.9634,-3.9668,-3.9675,-3.9688,-3.9711,-3.9739,-3.9753,-3.9787,-3.9806,-3.9832,-3.9815,-3.977,-3.9896,-3.9832,-3.9894,-3.9894,-3.9923,-3.9922,-4.0111,-3.9935,-3.9935,-3.9934,-3.9934,0,-3.962,-3.9685,-3.9663,-3.9706,-3.9778,-3.9753,-3.9824,-3.9826,-3.9838,-3.9881,-3.9843,-3.9883,-3.9858,-3.9896,-3.9883,-3.995,-3.9958,-3.9956,-3.9952,-3.996,-3.996,-3.9974,-3.9965,-3.9939,-3.9938,-3.9937,-3.9936,0,-3.9769,-3.9757,-3.983,-3.9837,-3.984,-3.9893,-3.9898,-3.9938,-3.9932,-3.9986,-3.9997,-3.9988,-4.0031,-4.0016,-4.0062,-4.0053,-4.0139,-4.0123,-4.0133,-4.013,-4.0193,-4.0187,-4.0398,-4.0425,-4.0231,-4.0233,-4.0234,0,-3.9863,-3.9913,-3.9925,-3.9951,-3.9961,-4.0003,-4.0026,-4.0003,-4.0029,-4.0052,-4.0089,-4.0129,-4.016,-4.0231,-4.0228,-4.0263,-4.0248,-4.0319,-4.0253,-4.026,-4.025,-4.0248,-4.0253,-4.0333,-4.0335,-4.0337,-4.0339,0,-4.0033,-4.0025,-4.006,-4.0094,-4.0123,-4.0148,-4.017,-4.0193,-4.0171,-4.0202,-4.0246,-4.027,-4.0317,-4.0357,-4.0388,-4.0395,-4.0364,-4.0359,-4.0376,-4.0385,-4.039,-4.0389,-4.0171,-4.0355,-4.0353,-4.0352,-4.0351,-4.0351,-4.0158,-4.02,-4.0215,-4.0256,-4.027,-4.0291,-4.0329,-4.0327,-4.0364,-4.0401,-4.0384,-4.0435,-4.045,-4.0489,-4.05,-4.0539,-4.0511,-4.0535,-4.0541,-4.0547,-4.0556,-4.0383,-4.0544,-4.0544,-4.0543,-4.0543,-4.0542,0,-4.0327,-4.0334,-4.0372,-4.0404,-4.0436,-4.0403,-4.0425,-4.0454,-4.0499,-4.0516,-4.0547,-4.0597,-4.0636,-4.0635,-4.0671,-4.0702,-4.0689,-4.0712,-4.071,-4.0712,-4.0578,-4.0561,-4.0723,-4.0723,-4.0723,-4.0723,-4.0723,-4.0723,-4.0418,-4.0487,-4.048,-4.0556,-4.0562,-4.0612,-4.0627,-4.0646,-4.066,-4.0718,-4.075,-4.0749,-4.0759,-4.0794,-4.0828,-4.0827,-4.0842,-4.0871,-4.0865,-4.074,-4.0722,-4.0705,-4.0689,-4.0875,-4.0875,-4.0996,-4.0997,-4.0998]},{"header":{"parameterUnit":"m.s-1","parameterCategory":1,"la1":30.2991,"la2":30.254,"lo1":-89.0895,"lo2":-89.0444,"dy":0.0017,"dx":0.0017,"nx":28,"ny":28,"refTime":"2024-02-29T09:00:00:Z","depth":0,"parameterNumber":3,"parameterNumberName":"V-component_of_WINDS"},"data":[0,0,0,0,0,0,0,0,0,0,0,0,0,0,0,0,0,0,0,0,0,0,0,0,0,0,0,0,0,0,0,0,0,0,0,0,0,0,0,0,0,0,0,0,0,0,0,0,0,0,0,0,0,0,0,0,0,0,-8.4558,-8.4559,0,-8.4653,-8.4655,-8.4656,-8.4574,-8.4571,-8.4567,-8.4564,-8.4656,-8.4661,-8.4667,0,0,0,0,0,0,0,0,0,0,0,0,0,-8.4297,-8.4303,-8.4558,-8.4559,-8.456,-8.4653,-8.4655,-8.4656,-8.4575,-8.457,-8.4566,-8.4563,-8.4654,-8.466,-8.4667,0,0,0,0,0,0,0,0,0,0,0,0,0,-8.4403,-8.4304,-8.4557,-8.4531,-8.4529,-8.4653,-8.4655,-8.4656,-8.4575,-8.457,-8.4565,-8.4561,-8.4652,-8.466,-8.4668,-8.4821,0,0,-8.4694,-8.4697,0,0,0,0,0,0,0,0,-8.4398,-8.4413,-8.4534,-8.4533,-8.4532,-8.4597,-8.4596,-8.4711,-8.4577,-8.4558,-8.4564,-8.4558,-8.464,-8.4649,-8.4678,-8.4825,-8.4829,-8.4694,-8.4699,-8.4703,-8.4705,0,0,0,0,0,0,0,-8.439,-8.4408,-8.4595,-8.4535,-8.4534,-8.4512,-8.4521,-8.4618,-8.4626,-8.4559,-8.4553,-8.4566,-8.4638,-8.467,-8.4679,-8.483,-8.4694,-8.4701,-8.4707,-8.471,-8.5107,-8.5112,0,0,0,0,0,0,-8.4387,-8.4403,-8.4592,-8.4598,-8.4451,-8.4521,-8.4531,-8.4581,-8.4624,-8.4626,-8.457,-8.4562,-8.4658,-8.4669,-8.4682,-8.4864,-8.4703,-8.4711,-8.4716,-8.5102,-8.5108,-8.5114,0,0,0,0,0,0,-8.4381,-8.4404,-8.4588,-8.4499,-8.4521,-8.4531,-8.4587,-8.4585,-8.4617,-8.4633,-8.4633,-8.4602,-8.4654,-8.467,-8.4787,-8.4866,-8.4714,-8.4722,-8.5095,-8.5104,-8.5111,-8.5229,0,0,0,0,0,0,-8.4374,-8.4403,-8.4463,-8.4501,-8.4526,-8.4694,-8.4592,-8.4591,-8.4632,-8.4622,-8.4663,-8.4664,-8.4652,-8.4775,-8.4796,-8.4875,-8.4729,-8.5088,-8.5099,-8.5109,-8.5218,-8.524,-8.5259,0,0,0,0,0,-8.4365,-8.449,-8.4466,-8.4489,-8.4601,-8.4699,-8.4713,-8.4698,-8.4639,-8.4698,-8.4708,-8.4663,-8.4854,-8.4788,-8.481,-8.4893,-8.5083,-8.5096,-8.5108,-8.5209,-8.5236,-8.5258,0,0,0,0,0,0,-8.4458,-8.4495,-8.4468,-8.461,-8.4653,-8.4685,-8.4759,-8.4727,-8.4785,-8.4773,-8.4749,-8.4759,-8.4882,-8.4899,-8.4825,-8.5043,-8.4959,-8.4976,-8.5028,-8.5053,-8.5074,-8.5067,-8.4736,0,0,0,0,0,-8.4496,-8.4575,-8.4601,-8.4724,-8.4747,-8.475,-8.4792,-8.4776,-8.4818,-8.4835,-8.4854,-8.4894,-8.4963,-8.5009,-8.5073,-8.522,-8.5227,-8.5287,-8.5308,-8.5325,-8.534,-8.5418,-8.5445,-8.5155,-8.5155,-8.5155,0,0,-8.4573,-8.4603,-8.4654,-8.4743,-8.4774,-8.4854,-8.4765,-8.4853,-8.4912,-8.4847,-8.496,-8.4975,-8.5018,-8.5151,-8.521,-8.5169,-8.5422,-8.534,-8.5354,-8.536,-8.5434,-8.5461,-8.5486,-8.5164,-8.5162,-8.5161,0,0,-8.4755,-8.4786,-8.4892,-8.4925,-8.4974,-8.4976,-8.5001,-8.5039,-8.5048,-8.516,-8.5114,-8.5182,-8.5301,-8.5334,-8.5367,-8.5562,-8.5522,-8.5583,-8.569,-8.5767,-8.579,-8.581,-8.5879,-8.5905,-8.5598,-8.5599,-8.5599,0,-8.4845,-8.4966,-8.495,-8.5042,-8.5083,-8.503,-8.5136,-8.5168,-8.5235,-8.5263,-8.5216,-8.5365,-8.539,-8.553,-8.5578,-8.5605,-8.5633,-8.5579,-8.5788,-8.5808,-8.5827,-8.5893,-8.5919,-8.5606,-8.5605,-8.5604,-8.5603,0,-8.5074,-8.5158,-8.5237,-8.5306,-8.5355,-8.5453,-8.545,-8.5501,-8.5481,-8.5487,-8.5602,-8.5631,-8.57,-8.5732,-8.5713,-8.5869,-8.5842,-8.5792,-8.5707,-8.5862,-8.5924,-8.5949,-8.5616,-8.5613,-8.5611,-8.5609,0,0,-8.5317,-8.5376,-8.5406,-8.5436,-8.5486,-8.555,-8.5645,-8.5716,-8.576,-8.5807,-8.5886,-8.5988,-8.5943,-8.598,-8.5964,-8.6031,-8.6184,-8.5973,-8.5973,-8.6011,-8.6357,-8.6394,-8.6424,-8.6157,-8.6162,-8.6166,-8.6353,0,-8.5502,-8.5671,-8.5659,-8.5817,-8.5895,-8.5846,-8.5929,-8.5968,-8.5976,-8.604,-8.6047,-8.6121,-8.6056,-8.6077,-8.6142,-8.6152,-8.6253,-8.6138,-8.6229,-8.6232,-8.622,-8.6456,-8.6496,-8.6672,-8.6377,-8.6381,-8.6384,0,-8.574,-8.5798,-8.5966,-8.6005,-8.6037,-8.6112,-8.6175,-8.6239,-8.6281,-8.6281,-8.6323,-8.6296,-8.639,-8.6303,-8.6432,-8.6354,-8.639,-8.64,-8.6407,-8.6415,-8.6318,-8.6471,-8.6727,-8.6754,-8.6422,-8.6419,-8.6416,0,-8.5901,-8.6021,-8.6137,-8.6165,-8.6213,-8.6267,-8.6289,-8.6326,-8.6369,-8.6424,-8.6451,-8.6515,-8.655,-8.6599,-8.6589,-8.6526,-8.672,-8.6632,-8.6722,-8.6722,-8.6765,-8.6762,-8.7031,-8.6788,-8.6788,-8.6787,-8.6787,0,-8.6109,-8.6213,-8.621,-8.6282,-8.6396,-8.638,-8.6494,-8.6509,-8.6543,-8.6614,-8.6575,-8.6642,-8.6625,-8.6691,-8.6683,-8.6791,-8.6806,-8.6809,-8.6805,-8.6813,-8.6812,-8.6836,-8.6824,-8.6794,-8.6793,-8.6791,-8.679,0,-8.6308,-8.6311,-8.6434,-8.6471,-8.6482,-8.6565,-8.6595,-8.6661,-8.6665,-8.6757,-8.6777,-8.6784,-8.686,-8.6855,-8.6939,-8.6934,-8.7067,-8.7049,-8.7054,-8.705,-8.714,-8.7132,-8.7434,-8.7472,-8.7204,-8.7207,-8.7209,0,-8.6441,-8.652,-8.6566,-8.6613,-8.6639,-8.6714,-8.6759,-8.6745,-8.6793,-8.6847,-8.6906,-8.6979,-8.7037,-8.7161,-8.7171,-8.7236,-8.7219,-8.7321,-8.7229,-8.7234,-8.7221,-8.7217,-8.7224,-8.7339,-8.7342,-8.7344,-8.7346,0,-8.6676,-8.6674,-8.6741,-8.6809,-8.6863,-8.6915,-8.6963,-8.7002,-8.6994,-8.7048,-8.7127,-8.7173,-8.726,-8.7333,-8.7395,-8.7414,-8.7379,-8.7375,-8.7399,-8.7408,-8.7407,-8.7409,-8.7104,-8.7368,-8.7366,-8.7364,-8.7363,-8.7362,-8.6846,-8.6915,-8.6958,-8.7034,-8.7069,-8.7114,-8.7178,-8.7192,-8.7258,-8.7331,-8.7318,-8.7406,-8.7445,-8.7525,-8.7551,-8.7618,-8.7581,-8.7616,-8.7625,-8.7634,-8.7645,-8.7397,-8.7629,-8.7628,-8.7628,-8.7627,-8.7627,0,-8.7079,-8.7105,-8.7175,-8.7244,-8.7304,-8.7267,-8.7318,-8.7369,-8.7448,-8.7489,-8.7547,-8.7637,-8.7707,-8.7724,-8.7791,-8.7842,-8.7827,-8.786,-8.7856,-8.7861,-8.7674,-8.7646,-8.787,-8.787,-8.787,-8.787,-8.787,-8.787,-8.7207,-8.7322,-8.7325,-8.7455,-8.7479,-8.7568,-8.76,-8.7641,-8.7673,-8.7777,-8.7836,-8.7847,-8.7878,-8.7946,-8.8009,-8.8011,-8.8038,-8.8077,-8.8074,-8.7898,-8.7874,-8.7851,-8.7825,-8.8083,-8.8083,-8.8255,-8.8257,-8.8258]}]]